[[{"header":{"parameterUnit":"m.s-1","parameterCategory":1,"la1":30.2991,"la2":30.254,"lo1":-89.0895,"lo2":-89.0444,"dy":0.0017,"dx":0.0017,"nx":28,"ny":28,"refTime":"2024-04-20T21:00:00:Z","depth":0,"parameterNumber":2,"parameterNumberName":"U-component_of_WINDS"},"data":[0,0,0,0,0,0,0,0,0,0,0,0,0,0,0,0,0,0,0,0,0,0,0,0,0,0,0,0,0,0,0,0,0,0,0,0,0,0,0,0,0,0,0,0,0,0,0,0,0,0,0,0,0,0,0,0,0,0,-0.7438,-0.7437,0,-0.7392,-0.7392,-0.7391,-0.7352,-0.7352,-0.7351,-0.7351,-0.7303,-0.7302,-0.7302,0,0,0,0,0,0,0,0,0,0,0,0,0,-0.749,-0.7489,-0.7438,-0.7437,-0.7437,-0.7392,-0.7392,-0.7391,-0.7352,-0.7352,-0.7351,-0.7351,-0.7304,-0.7302,-0.7301,0,0,0,0,0,0,0,0,0,0,0,0,0,-0.7458,-0.7489,-0.7438,-0.7412,-0.7409,-0.7393,-0.7392,-0.7391,-0.7352,-0.7352,-0.7351,-0.7351,-0.7304,-0.7303,-0.7301,-0.7306,0,0,-0.7297,-0.7297,0,0,0,0,0,0,0,0,-0.746,-0.7456,-0.7416,-0.7414,-0.7411,-0.7377,-0.7392,-0.7363,-0.7353,-0.7374,-0.7351,-0.735,-0.7328,-0.7325,-0.7318,-0.7304,-0.7302,-0.7297,-0.7296,-0.7296,-0.7295,0,0,0,0,0,0,0,-0.7462,-0.7458,-0.742,-0.7416,-0.7412,-0.7402,-0.7397,-0.7387,-0.7355,-0.7372,-0.7369,-0.7364,-0.7327,-0.7319,-0.7316,-0.7301,-0.7297,-0.7296,-0.7295,-0.7295,-0.7289,-0.7289,0,0,0,0,0,0,-0.7469,-0.746,-0.7421,-0.7418,-0.7434,-0.7402,-0.7396,-0.7389,-0.7355,-0.735,-0.7365,-0.7363,-0.7322,-0.7318,-0.7315,-0.7318,-0.7296,-0.7295,-0.7294,-0.7288,-0.7289,-0.7289,0,0,0,0,0,0,-0.747,-0.7465,-0.7423,-0.7438,-0.7432,-0.7402,-0.7394,-0.7388,-0.7381,-0.735,-0.7344,-0.7363,-0.7321,-0.7316,-0.7309,-0.7316,-0.7294,-0.7293,-0.7287,-0.7288,-0.7289,-0.7325,0,0,0,0,0,0,-0.7471,-0.7466,-0.7468,-0.7439,-0.7432,-0.7418,-0.7394,-0.7388,-0.7379,-0.7375,-0.7347,-0.7341,-0.732,-0.7311,-0.7307,-0.7314,-0.7292,-0.7286,-0.7288,-0.7289,-0.7323,-0.7327,-0.7331,0,0,0,0,0,-0.7473,-0.748,-0.7468,-0.7464,-0.7434,-0.7419,-0.7415,-0.7391,-0.7379,-0.7381,-0.7361,-0.7342,-0.7316,-0.731,-0.7306,-0.7312,-0.7286,-0.7287,-0.7289,-0.7322,-0.7327,-0.7331,0,0,0,0,0,0,-0.7511,-0.7476,-0.7463,-0.746,-0.7443,-0.7412,-0.7414,-0.7397,-0.7382,-0.738,-0.735,-0.7343,-0.7339,-0.7324,-0.7319,-0.7315,-0.7298,-0.7299,-0.7325,-0.7329,-0.7333,-0.7337,-0.7291,0,0,0,0,0,-0.7519,-0.751,-0.748,-0.748,-0.7472,-0.7445,-0.7437,-0.742,-0.7401,-0.7394,-0.7373,-0.7355,-0.7342,-0.7335,-0.7321,-0.7321,-0.7314,-0.7323,-0.7326,-0.733,-0.7331,-0.7329,-0.7333,-0.7294,-0.7294,-0.7294,0,0,-0.7535,-0.7515,-0.7511,-0.7487,-0.7472,-0.7464,-0.7439,-0.7431,-0.7424,-0.7392,-0.7384,-0.7368,-0.7346,-0.7342,-0.7339,-0.7329,-0.734,-0.7331,-0.7334,-0.7334,-0.7331,-0.7335,-0.7338,-0.7295,-0.7295,-0.7295,0,0,-0.756,-0.7544,-0.7543,-0.7528,-0.7505,-0.7487,-0.7487,-0.7459,-0.7447,-0.7438,-0.7414,-0.7405,-0.7384,-0.7369,-0.7359,-0.7378,-0.736,-0.7374,-0.7394,-0.7393,-0.7396,-0.7399,-0.7405,-0.7408,-0.7375,-0.7376,-0.7376,0,-0.7584,-0.757,-0.7544,-0.7538,-0.7528,-0.7499,-0.7497,-0.7484,-0.7458,-0.7451,-0.7441,-0.7414,-0.7397,-0.7389,-0.7393,-0.7386,-0.7384,-0.7378,-0.7398,-0.74,-0.7402,-0.7408,-0.7411,-0.7377,-0.7377,-0.7377,-0.7377,0,-0.76,-0.7591,-0.7593,-0.7569,-0.7559,-0.7555,-0.7528,-0.752,-0.7504,-0.7486,-0.7477,-0.7455,-0.7437,-0.7434,-0.7417,-0.7423,-0.7418,-0.7403,-0.7386,-0.7408,-0.7413,-0.7416,-0.738,-0.7379,-0.7379,-0.7378,0,0,-0.7648,-0.761,-0.7611,-0.7599,-0.7572,-0.7564,-0.7558,-0.7541,-0.7536,-0.7518,-0.7513,-0.7495,-0.7481,-0.747,-0.7451,-0.745,-0.7467,-0.7435,-0.7434,-0.7442,-0.7471,-0.7483,-0.7486,-0.7454,-0.7455,-0.7455,-0.7473,0,-0.767,-0.7658,-0.7635,-0.7631,-0.7622,-0.7594,-0.7588,-0.7571,-0.7554,-0.7543,-0.7524,-0.7513,-0.7495,-0.7488,-0.7485,-0.7465,-0.7472,-0.7463,-0.7449,-0.7448,-0.7456,-0.7489,-0.7502,-0.752,-0.7475,-0.7476,-0.7476,0,-0.7693,-0.7678,-0.7674,-0.7646,-0.7642,-0.7638,-0.762,-0.761,-0.7589,-0.7577,-0.7564,-0.7543,-0.7535,-0.7519,-0.7507,-0.7502,-0.7494,-0.7483,-0.7483,-0.7481,-0.7464,-0.7489,-0.7525,-0.7529,-0.7479,-0.7479,-0.7478,0,-0.773,-0.7708,-0.7702,-0.7693,-0.7661,-0.7659,-0.7646,-0.7624,-0.7615,-0.7599,-0.7592,-0.7575,-0.7566,-0.7553,-0.7528,-0.7519,-0.7519,-0.7501,-0.7509,-0.7509,-0.7511,-0.7511,-0.7547,-0.7505,-0.7505,-0.7505,-0.7505,0,-0.7756,-0.7755,-0.7718,-0.7715,-0.7712,-0.7684,-0.7682,-0.7665,-0.7646,-0.7639,-0.7613,-0.7606,-0.7574,-0.7563,-0.7544,-0.7537,-0.7533,-0.7523,-0.7518,-0.7525,-0.7527,-0.752,-0.7519,-0.7506,-0.7506,-0.7505,-0.7505,0,-0.7797,-0.7772,-0.7764,-0.7734,-0.7727,-0.7726,-0.77,-0.7696,-0.7677,-0.7668,-0.7664,-0.7634,-0.7621,-0.7595,-0.7573,-0.756,-0.7558,-0.7549,-0.7565,-0.7562,-0.7572,-0.7571,-0.7605,-0.7608,-0.7564,-0.7565,-0.7565,0,-0.7816,-0.7814,-0.7784,-0.7777,-0.7765,-0.7754,-0.7745,-0.7717,-0.7708,-0.7684,-0.7682,-0.7666,-0.7652,-0.7631,-0.7608,-0.7591,-0.7582,-0.7595,-0.7579,-0.7587,-0.7582,-0.7583,-0.7583,-0.7599,-0.7599,-0.76,-0.76,0,-0.7852,-0.784,-0.7827,-0.7811,-0.78,-0.7786,-0.777,-0.7766,-0.7734,-0.7725,-0.7711,-0.77,-0.7679,-0.7663,-0.7643,-0.7629,-0.7609,-0.7605,-0.7606,-0.7615,-0.7624,-0.7619,-0.7575,-0.7605,-0.7604,-0.7604,-0.7604,-0.7604,-0.7882,-0.7879,-0.7858,-0.7845,-0.783,-0.7815,-0.781,-0.779,-0.7778,-0.7758,-0.7742,-0.773,-0.7708,-0.7679,-0.7666,-0.7655,-0.7645,-0.7647,-0.7647,-0.7648,-0.7652,-0.7626,-0.7651,-0.7651,-0.7651,-0.765,-0.765,0,-0.7918,-0.7902,-0.789,-0.7869,-0.7859,-0.7841,-0.7823,-0.7815,-0.7804,-0.7786,-0.7773,-0.7756,-0.7741,-0.7716,-0.7699,-0.7695,-0.7685,-0.7691,-0.7691,-0.7688,-0.7661,-0.7662,-0.7699,-0.7699,-0.7699,-0.7699,-0.7699,-0.7699,-0.7935,-0.7929,-0.7914,-0.79,-0.7884,-0.7872,-0.7863,-0.7849,-0.7834,-0.7817,-0.7805,-0.7789,-0.7767,-0.7748,-0.7733,-0.7726,-0.7721,-0.773,-0.772,-0.7695,-0.769,-0.7686,-0.7687,-0.7729,-0.7729,-0.7749,-0.7749,-0.7749]},{"header":{"parameterUnit":"m.s-1","parameterCategory":1,"la1":30.2991,"la2":30.254,"lo1":-89.0895,"lo2":-89.0444,"dy":0.0017,"dx":0.0017,"nx":28,"ny":28,"refTime":"2024-04-20T21:00:00:Z","depth":0,"parameterNumber":3,"parameterNumberName":"V-component_of_WINDS"},"data":[0,0,0,0,0,0,0,0,0,0,0,0,0,0,0,0,0,0,0,0,0,0,0,0,0,0,0,0,0,0,0,0,0,0,0,0,0,0,0,0,0,0,0,0,0,0,0,0,0,0,0,0,0,0,0,0,0,0,-3.4784,-3.4784,0,-3.4808,-3.4809,-3.4809,-3.4798,-3.4797,-3.4797,-3.4796,-3.4818,-3.482,-3.4821,0,0,0,0,0,0,0,0,0,0,0,0,0,-3.4726,-3.4727,-3.4784,-3.4784,-3.4785,-3.4808,-3.4809,-3.4809,-3.4798,-3.4797,-3.4797,-3.4796,-3.4818,-3.4819,-3.4821,0,0,0,0,0,0,0,0,0,0,0,0,0,-3.4751,-3.4728,-3.4784,-3.4782,-3.4782,-3.4808,-3.4809,-3.4809,-3.4798,-3.4797,-3.4796,-3.4796,-3.4818,-3.4819,-3.4821,-3.485,0,0,-3.4826,-3.4827,0,0,0,0,0,0,0,0,-3.475,-3.4753,-3.4782,-3.4782,-3.4782,-3.4799,-3.4796,-3.4823,-3.4798,-3.4792,-3.4796,-3.4795,-3.4813,-3.4815,-3.4821,-3.4851,-3.4852,-3.4826,-3.4827,-3.4828,-3.4829,0,0,0,0,0,0,0,-3.4748,-3.4752,-3.4794,-3.4782,-3.4783,-3.4779,-3.4782,-3.4801,-3.4807,-3.4792,-3.4792,-3.4795,-3.4813,-3.482,-3.4822,-3.4852,-3.4826,-3.4828,-3.4829,-3.483,-3.4908,-3.4909,0,0,0,0,0,0,-3.4746,-3.4751,-3.4793,-3.4794,-3.4764,-3.4781,-3.4784,-3.4795,-3.4807,-3.4808,-3.4796,-3.4794,-3.4817,-3.482,-3.4822,-3.4859,-3.4828,-3.483,-3.4831,-3.4907,-3.4909,-3.491,0,0,0,0,0,0,-3.4745,-3.475,-3.4792,-3.4772,-3.4777,-3.4783,-3.4795,-3.4796,-3.4803,-3.4809,-3.481,-3.4802,-3.4816,-3.482,-3.4844,-3.4859,-3.4831,-3.4832,-3.4906,-3.4908,-3.4909,-3.493,0,0,0,0,0,0,-3.4744,-3.475,-3.4761,-3.4773,-3.4778,-3.4813,-3.4796,-3.4797,-3.4806,-3.4805,-3.4815,-3.4816,-3.4816,-3.4841,-3.4845,-3.4861,-3.4833,-3.4905,-3.4907,-3.4909,-3.4928,-3.4932,-3.4936,0,0,0,0,0,-3.4742,-3.4765,-3.4762,-3.4767,-3.4793,-3.4814,-3.4817,-3.4817,-3.4807,-3.4819,-3.4823,-3.4816,-3.4857,-3.4844,-3.4848,-3.4865,-3.4904,-3.4906,-3.4909,-3.4927,-3.4932,-3.4936,0,0,0,0,0,0,-3.4753,-3.4766,-3.4763,-3.4791,-3.4802,-3.4812,-3.4826,-3.4822,-3.4835,-3.4833,-3.4832,-3.4835,-3.486,-3.4864,-3.485,-3.4894,-3.4879,-3.4882,-3.4891,-3.4895,-3.4899,-3.4898,-3.4835,0,0,0,0,0,-3.4759,-3.4777,-3.4786,-3.481,-3.4816,-3.482,-3.4829,-3.4829,-3.484,-3.4844,-3.485,-3.486,-3.4875,-3.4885,-3.4899,-3.4928,-3.4932,-3.4942,-3.4946,-3.4949,-3.4952,-3.497,-3.4976,-3.4918,-3.4918,-3.4918,0,0,-3.4772,-3.4781,-3.4791,-3.4813,-3.4821,-3.4839,-3.4824,-3.4843,-3.4856,-3.4846,-3.487,-3.4875,-3.4886,-3.4913,-3.4926,-3.4918,-3.4969,-3.4952,-3.4955,-3.4956,-3.4973,-3.4979,-3.4984,-3.4919,-3.4919,-3.4919,0,0,-3.4804,-3.4812,-3.4833,-3.4843,-3.4856,-3.4859,-3.4865,-3.4876,-3.488,-3.4904,-3.4898,-3.4913,-3.4939,-3.4948,-3.4956,-3.4993,-3.4988,-3.4997,-3.5018,-3.5035,-3.504,-3.5044,-3.5059,-3.5065,-3.5001,-3.5001,-3.5001,0,-3.4817,-3.4844,-3.4845,-3.4865,-3.4875,-3.4869,-3.4891,-3.49,-3.4917,-3.4924,-3.4915,-3.4949,-3.4956,-3.4986,-3.4996,-3.5001,-3.5008,-3.4997,-3.5039,-3.5044,-3.5047,-3.5062,-3.5068,-3.5002,-3.5002,-3.5002,-3.5001,0,-3.4861,-3.488,-3.4896,-3.4915,-3.4927,-3.4947,-3.4951,-3.4963,-3.4962,-3.4966,-3.4991,-3.4999,-3.5016,-3.5023,-3.502,-3.5053,-3.5049,-3.504,-3.5024,-3.5054,-3.5068,-3.5074,-3.5004,-3.5003,-3.5003,-3.5003,0,0,-3.4901,-3.4921,-3.4927,-3.4937,-3.4952,-3.4967,-3.4988,-3.5006,-3.5017,-3.5028,-3.5047,-3.507,-3.5062,-3.5071,-3.507,-3.5085,-3.5117,-3.5075,-3.5075,-3.5084,-3.5156,-3.5164,-3.5171,-3.5113,-3.5114,-3.5115,-3.5156,0,-3.4936,-3.4974,-3.4976,-3.5011,-3.503,-3.5025,-3.5043,-3.5055,-3.5059,-3.5075,-3.5079,-3.5097,-3.5085,-3.509,-3.5105,-3.511,-3.5132,-3.5107,-3.5131,-3.5132,-3.513,-3.5177,-3.5186,-3.5224,-3.5161,-3.5162,-3.5163,0,-3.4981,-3.4997,-3.5035,-3.505,-3.5058,-3.5075,-3.5093,-3.5108,-3.512,-3.5123,-3.5134,-3.5131,-3.5153,-3.5136,-3.5167,-3.515,-3.516,-3.5164,-3.5165,-3.5169,-3.515,-3.5184,-3.5236,-3.5243,-3.5171,-3.517,-3.5169,0,-3.5009,-3.504,-3.5067,-3.5075,-3.5092,-3.5105,-3.5112,-3.5125,-3.5136,-3.5151,-3.5159,-3.5175,-3.5185,-3.5198,-3.52,-3.5187,-3.5231,-3.5214,-3.5234,-3.5235,-3.5245,-3.5245,-3.5301,-3.5248,-3.5248,-3.5248,-3.5248,0,-3.5049,-3.5073,-3.5081,-3.5097,-3.5124,-3.5126,-3.5152,-3.5159,-3.517,-3.5188,-3.5183,-3.52,-3.5201,-3.5218,-3.5219,-3.5246,-3.5249,-3.5252,-3.5252,-3.5254,-3.5254,-3.5261,-3.5259,-3.525,-3.5249,-3.5249,-3.5249,0,-3.5086,-3.5091,-3.5121,-3.5136,-3.514,-3.516,-3.5172,-3.5188,-3.5193,-3.5216,-3.5221,-3.5228,-3.5248,-3.5251,-3.5274,-3.5275,-3.5308,-3.5304,-3.5304,-3.5304,-3.5326,-3.5324,-3.539,-3.54,-3.5339,-3.5339,-3.534,0,-3.5111,-3.513,-3.5148,-3.5161,-3.517,-3.5189,-3.5202,-3.5204,-3.5217,-3.5234,-3.5249,-3.5269,-3.5285,-3.5318,-3.5325,-3.5343,-3.5341,-3.5363,-3.5343,-3.5345,-3.5344,-3.5344,-3.5346,-3.5367,-3.5368,-3.5368,-3.5368,0,-3.5158,-3.516,-3.5179,-3.52,-3.5215,-3.5231,-3.5245,-3.5256,-3.526,-3.5275,-3.5297,-3.5309,-3.5334,-3.5355,-3.5373,-3.538,-3.5376,-3.5374,-3.5381,-3.5383,-3.5383,-3.5386,-3.5316,-3.5373,-3.5373,-3.5372,-3.5372,-3.5372,-3.5191,-3.5208,-3.5225,-3.5246,-3.5258,-3.5272,-3.5289,-3.5297,-3.5316,-3.5337,-3.5337,-3.5361,-3.5375,-3.5399,-3.5408,-3.5427,-3.542,-3.5428,-3.543,-3.5433,-3.5436,-3.5379,-3.543,-3.5429,-3.5429,-3.5429,-3.5429,0,-3.5239,-3.525,-3.5269,-3.5292,-3.5309,-3.5304,-3.5321,-3.5335,-3.5357,-3.5371,-3.5388,-3.5414,-3.5434,-3.5443,-3.5463,-3.5476,-3.5475,-3.5482,-3.5482,-3.5484,-3.544,-3.5434,-3.5483,-3.5483,-3.5483,-3.5483,-3.5483,-3.5483,-3.5266,-3.5296,-3.5301,-3.5337,-3.5347,-3.5372,-3.5382,-3.5396,-3.5407,-3.5437,-3.5455,-3.5461,-3.5473,-3.5494,-3.5512,-3.5514,-3.5523,-3.5531,-3.5532,-3.5492,-3.5487,-3.5481,-3.5476,-3.5532,-3.5532,-3.5575,-3.5575,-3.5575]}]]